{"data":{"norad_id":63064,"intl_designator":"2025-035N","name":"STARLINK-11408 [DTC]","alt_names":[],"object_type":"PAYLOAD","status":"ACTIVE","operator":null,"country":"US","launch_date":"2025-02-21","launch_site_code":"AFETR","launch_vehicle":null,"mission":null,"orbit_class":"UNKNOWN","rcs_meters":null,"size_class":null,"mass_kg":null,"dimensions":null,"purposes":["comms"],"wikipedia_slug":null,"has_3d_model":false,"image_url":null,"decayed_at":null,"tle_current":{"epoch":"2026-09-21T07:50:46.275936Z","epoch_age_seconds":90877,"freshness":"FRESH","line1":"1 63064U 25035N   26264.32692449  .00078920  00000+0  61222-3 0  9994","line2":"2 63064  43.0012 275.7304 0002074 266.3976  93.6655 15.70858011 91999","mean_motion":15.70858011,"eccentricity":0.0002074,"inclination_deg":43.0012,"raan_deg":275.7304,"arg_perigee_deg":266.3976,"mean_anomaly_deg":93.6655,"bstar":0.00061222,"rev_number":9199,"period_min":91.66964741029,"perigee_km":355.04683123865,"apogee_km":357.84033526458,"semimajor_km":6734.5805832516,"source":"CELESTRAK","updated_at":"2026-09-22T09:00:49.752928Z"}}}